Location: Harwich
(41.7160°N, 69.9939°W)
Time: 11:12:58
(UTC+01:00)

Vanguard 1 Rocket - Visible Passes

Search period start: 31 January 2023 00:00
Search period end: 10 February 2023 00:00
Orbit: 651 x 4225 km, 34.3° (Epoch: 30 January)

Date Brightness Start Highest point End Pass type
(mag) Time Alt. Az. Time Alt. Az. Time Alt. Az.
31 Jan 11.5 01:50:03 10° W 02:09:51 31° SW 02:28:41 10° S visible
01 Feb 11.4 00:35:09 10° W 00:55:58 43° SW 01:18:06 10° SSE visible
01 Feb 11.8 03:12:49 10° W 03:24:11 15° SW 03:34:57 10° SSW visible
01 Feb 11.2 23:21:37 10° W 23:41:31 53° SSW 00:05:54 10° SE visible
02 Feb 11.7 01:53:28 10° W 02:11:12 26° SW 02:28:41 10° S visible
03 Feb 11.6 00:38:01 10° W 00:57:31 36° SW 01:18:49 10° SSE visible
03 Feb 11.4 23:24:19 10° W 23:43:17 47° SSW 00:07:03 10° SSE visible
04 Feb 11.8 01:57:38 10° W 02:12:35 20° SW 02:27:45 10° SSW visible
05 Feb 11.8 00:41:12 10° W 00:59:04 30° SW 01:19:01 10° S visible
05 Feb 11.6 23:27:11 10° W 23:45:04 40° SSW 00:07:49 10° SSE visible
06 Feb 12.0 02:03:21 10° WSW 02:14:04 15° SW 02:25:05 10° SSW visible
07 Feb 11.9 00:44:53 10° W 01:00:40 24° SW 01:18:32 10° S visible
07 Feb 11.8 23:30:16 10° W 23:46:52 34° SW 00:08:09 10° SSE visible
09 Feb 12.1 00:49:26 10° W 01:02:22 18° SW 01:16:57 10° S visible
